TimeEDT,TemperatureF,Dew PointF,Humidity,Sea Level PressureIn,VisibilityMPH,Wind Direction,Wind SpeedMPH,Gust SpeedMPH,PrecipitationIn,Events,Conditions,WindDirDegrees,DateUTC
12:58 AM,62.8,61.5,96,29.93,10.0,SW,3.5,-,N/A,,Clear,230,2013-06-11 04:58:00
1:58 AM,62.4,61.9,98,29.94,10.0,West,3.5,-,N/A,,Clear,260,2013-06-11 05:58:00
2:58 AM,60.6,59.9,97,29.93,10.0,WSW,3.5,-,N/A,,Clear,250,2013-06-11 06:58:00
3:58 AM,60.8,60.3,98,29.93,6.0,South,3.5,-,N/A,,Clear,190,2013-06-11 07:58:00
4:58 AM,60.8,60.8,100,29.94,7.0,SSE,2.3,-,N/A,,Clear,150,2013-06-11 08:58:00
5:58 AM,60.1,60.1,100,29.96,9.0,Calm,Calm,-,N/A,,Clear,0,2013-06-11 09:58:00
6:58 AM,58.5,58.5,100,29.98,8.0,Calm,Calm,-,N/A,,Clear,0,2013-06-11 10:58:00
7:58 AM,64.4,63.9,98,30.01,10.0,SW,4.6,-,N/A,,Clear,220,2013-06-11 11:58:00
9:58 AM,73.8,64.4,72,30.02,10.0,SW,6.9,-,N/A,,Clear,220,2013-06-11 13:58:00
10:58 AM,75.6,63.9,67,30.01,10.0,SW,4.6,-,N/A,,Clear,230,2013-06-11 14:58:00
11:58 AM,78.1,64.2,62,30.01,10.0,Variable,3.5,-,N/A,,Clear,0,2013-06-11 15:58:00
12:58 PM,79.7,64.0,59,30.01,10.0,Variable,3.5,-,N/A,,Clear,0,2013-06-11 16:58:00
1:58 PM,81.5,64.6,56,29.99,10.0,South,8.1,-,N/A,,Clear,170,2013-06-11 17:58:00
2:58 PM,83.3,65.7,55,29.97,10.0,South,8.1,-,N/A,,Clear,190,2013-06-11 18:58:00
3:58 PM,84.0,66.0,55,29.96,10.0,Variable,4.6,-,N/A,,Clear,0,2013-06-11 19:58:00
4:58 PM,84.9,64.9,51,29.95,10.0,WSW,8.1,-,N/A,,Clear,240,2013-06-11 20:58:00
5:58 PM,83.8,66.0,55,29.95,10.0,SW,8.1,-,N/A,,Clear,220,2013-06-11 21:58:00
6:58 PM,82.0,66.4,59,29.94,10.0,SW,4.6,-,N/A,,Clear,220,2013-06-11 22:58:00
7:58 PM,81.0,67.3,63,29.94,10.0,SSW,5.8,-,N/A,,Clear,200,2013-06-11 23:58:00
8:58 PM,77.0,67.6,73,29.92,10.0,SSE,3.5,-,N/A,,Scattered Clouds,160,2013-06-12 00:58:00
9:58 PM,75.7,67.6,76,29.93,10.0,SW,2.3,-,N/A,,Overcast,220,2013-06-12 01:58:00
10:07 PM,75.2,68.0,78,29.94,10.0,South,2.3,-,N/A,Rain,Light Rain,180,2013-06-12 02:07:00
10:17 PM,77.0,68.0,74,29.95,10.0,Variable,2.3,-,N/A,,Overcast,0,2013-06-12 02:17:00
10:58 PM,77.0,67.5,72,29.94,10.0,SSE,4.6,-,0.00,,Mostly Cloudy,160,2013-06-12 02:58:00
11:58 PM,73.9,67.8,81,29.94,10.0,SE,2.3,-,N/A,,Clear,140,2013-06-12 03:58:00